Saint Johns, AZ

9:04 PM MST on February 22, 2017 (GMT -0700)
Saint Johns Industrial

Weather History for KSJN - March, 2014

Change the Weather History Date:

Monday, March 10, 2014

  Actual Average (KLSB) Record (KLSB)
Temperature  
Mean Temperature 42 °F -  
Max Temperature 64 °F 69 °F 71 °F (2016)
Min Temperature 19 °F 33 °F 32 °F (2013)
Degree Days  
Heating Degree Days 24    
Moisture  
Dew Point 18 °F    
Average Humidity 34    
Maximum Humidity 81    
Minimum Humidity 9    
Precipitation  
Precipitation 0.00 in - - ()
Sea Level Pressure  
Sea Level Pressure 30.02 in    
Wind  
Wind Speed 7 mph (WSW)    
Max Wind Speed 20 mph    
Max Gust Speed 26 mph    
Visibility 10 miles    
Events      
Averages and records for this station are not official NWS values.
T = Trace of Precipitation, MM = Missing Value Source: NWS Daily Summary

Daily Weather History Graph

Daily Weather History Graph

Search for Another Location

Airport or City:

Trip Planner

Search our weather history database for the weather conditions in past years. The results will help you decide how hot, cold, wet, or windy it might be!

Date:

Astronomy

Mar. 10, 2014 Rise Set
Actual Time 6:34 AM MST 6:21 PM MST
Civil Twilight 6:09 AM MST 6:46 PM MST
Nautical Twilight 5:40 AM MST 7:15 PM MST
Astronomical Twilight 5:11 AM MST 7:44 PM MST
Moon 1:17 PM MST (3/10) 2:38 AM MST (3/10)
Length of Visible Light 12h 36m
Length of Day
11h 46m
Waxing Gibbous, 71% of the Moon is Illuminated
Mar 10
Waxing Gibbous
Mar 16
Full
Mar 23
Last Quarter
Mar 30
New
Apr 7
First Quarter

Hourly Weather History & Observations

Time (MST) Temp. Windchill Dew Point Humidity Pressure Visibility Wind Dir Wind Speed Gust Speed Precip Events Conditions
12:54 AM 37.0 °F 33.3 °F 21.9 °F 54% 30.15 in 10.0 mi SSW 4.6 mph - N/A   Clear
1:54 AM 36.0 °F 32.1 °F 21.0 °F 55% 30.12 in 10.0 mi SSE 4.6 mph - N/A   Clear
2:54 AM 33.1 °F - 21.0 °F 61% 30.12 in 10.0 mi Calm Calm - N/A   Clear
3:54 AM 33.1 °F 27.7 °F 21.9 °F 64% 30.09 in 10.0 mi SSE 5.8 mph - N/A   Clear
4:54 AM 32.0 °F 27.5 °F 21.0 °F 64% 30.09 in 10.0 mi South 4.6 mph - N/A   Clear
5:54 AM 28.0 °F - 19.9 °F 72% 30.11 in 10.0 mi Calm Calm - N/A   Clear
6:54 AM 24.1 °F 19.7 °F 19.0 °F 81% 30.15 in 10.0 mi NW 3.5 mph - N/A   Clear
7:54 AM 35.1 °F - 21.0 °F 57% 30.14 in 10.0 mi Calm Calm - N/A   Clear
8:54 AM 41.0 °F - 21.9 °F 47% 30.12 in 10.0 mi Calm Calm - N/A   Clear
9:54 AM 50.0 °F - 21.0 °F 32% 30.09 in 10.0 mi North 3.5 mph - N/A   Clear
10:54 AM 54.0 °F - 19.9 °F 26% 30.07 in 10.0 mi Variable 5.8 mph - N/A   Clear
11:54 AM 60.1 °F - 19.0 °F 20% 30.02 in 10.0 mi NNW 10.4 mph - N/A   Clear
12:54 PM 63.0 °F - 18.0 °F 18% 29.99 in 10.0 mi NW 11.5 mph 21.9 mph N/A   Clear
1:54 PM 64.9 °F - 16.0 °F 15% 29.94 in 10.0 mi NW 8.1 mph - N/A   Clear
2:54 PM 66.9 °F - 16.0 °F 14% 29.92 in 10.0 mi West 17.3 mph - N/A   Clear
3:54 PM 68.0 °F - 16.0 °F 14% 29.89 in 10.0 mi West 15.0 mph - N/A   Clear
4:27 PM 68.0 °F - 14.0 °F 12% 30.03 in 10.0 mi West 12.7 mph 24.2 mph N/A   Clear
4:54 PM 66.9 °F - 16.0 °F 14% 29.89 in 10.0 mi West 17.3 mph 23.0 mph N/A   Clear
5:54 PM 64.0 °F - 17.1 °F 16% 29.92 in 10.0 mi SW 15.0 mph - N/A   Clear
6:54 PM 57.9 °F - 12.9 °F 17% 29.96 in 10.0 mi SW 13.8 mph - N/A   Clear
7:54 PM 54.0 °F - 12.9 °F 20% 29.92 in 10.0 mi SSW 9.2 mph - N/A   Clear
8:54 PM 52.0 °F - 15.1 °F 23% 29.90 in 10.0 mi WSW 19.6 mph 26.5 mph N/A   Clear
9:54 PM 48.9 °F - 18.0 °F 29% 29.88 in 10.0 mi West 12.7 mph - N/A   Clear
10:54 PM 48.0 °F - 17.1 °F 29% 29.88 in 10.0 mi WSW 16.1 mph - N/A   Clear
11:54 PM 46.9 °F - 19.0 °F 33% 29.86 in 10.0 mi WSW 12.7 mph - N/A   Clear